Location: Unnamed
(23.5608°S, 46.6833°W)
Time: 09:08:54
(UTC-03:00)

Tiros 4 - Pass Details

Date: 15 December 2023
Orbit: 683 x 793 km, 48.3° (Epoch: 21 February)

Event Time Altitude Azimuth Distance (km) Brightness Sun altitude
Rises 22:41:05 0° 256° (WSW) 3,253 10.7 -39.2°
Reaches altitude 10° 22:46:01 10° 217° (SW) 2,354 10.2 -39.6°
Maximum altitude 22:47:06 11° 206° (SSW) 2,322 10.2 -39.7°
Drops below altitude 10° 22:48:12 10° 194° (SSW) 2,364 10.2 -39.8°
Sets 22:53:14 0° 155° (SSE) 3,307 10.8 -40.3°
